This demonstration page uses our WeatherBlox Daily Observations layout. Learn more.

Left ArrowRight Arrow

30.00354, -91.81873

Hourly Observations for August 7, 2022

Temp ( °F °C ) Dew Point ( °F °C ) Humidity (%) Winds ( mph kmh ) Pressure ( in mb ) Visibility ( mi km ) Precip ( " mm )
12:53 am 00:53 Clear 76 24.4 73 22.8 91 91 E 3 6 30.09 1019 10 16 0.00 0.00
1:53 am 01:53 Clear 76 24.4 73 22.8 91 91 Calm 30.09 1019 10 16 0.00 0.00
2:53 am 02:53 Clear 76 24.4 73 22.8 91 91 E 6 9 30.09 1019 10 16 0.00 0.00
3:53 am 03:53 Clear 76 24.4 74 23.3 94 94 Calm 30.09 1019 10 16 0.00 0.00
4:53 am 04:53 Clear 76 24.4 73 22.8 91 91 E 3 6 30.09 1019 10 16 0.00 0.00
5:53 am 05:53 Clear 76 24.4 74 23.3 94 94 E 3 6 30.11 1020 10 16 0.00 0.00
6:53 am 06:53 Sunny 76 24.4 74 23.3 94 94 NE 3 6 30.14 1021 10 16 0.00 0.00
7:53 am 07:53 Sunny 78 25.6 76 24.4 93 93 ENE 3 6 30.14 1021 10 16 0.00 0.00
8:53 am 08:53 Sunny 82 27.8 77 25 85 85 E 5 7 30.16 1021 10 16 0.00 0.00
9:53 am 09:53 Mostly Sunny 87 30.6 75 23.9 67 67 E 8 13 30.16 1021 10 16 0.00 0.00
10:23 am 10:23 Mostly Cloudy 87 30.6 75 23.9 67 67 SSE 3 6 30.16 1021 10 16 0.00 0.00
10:53 am 10:53 Partly Cloudy 87 30.6 75 23.9 67 67 ESE 3 6 30.16 1021 10 16 0.00 0.00
11:06 am 11:06 Mostly Cloudy 90 32.2 75 23.9 62 62 SE 6 9 30.16 1021 10 16 0.00 0.00
11:20 am 11:20 Partly Cloudy 91 32.8 74 23.3 57 57 ENE 6 9 30.16 1021 10 16 0.00 0.00
11:53 am 11:53 Partly Cloudy 90 32.2 74 23.3 59 59 ESE 7 11 30.15 1021 10 16 0.00 0.00
12:53 pm 12:53 Mostly Sunny 92 33.3 73 22.8 54 54 VRB 7 11 30.13 1020 10 16 0.00 0.00
1:53 pm 13:53 Mostly Cloudy 91 32.8 72 22.2 54 54 ESE 8 13 30.11 1020 10 16 0.00 0.00
2:24 pm 14:24 Partly Cloudy with Nearby Thunderstorms 94 34.4 72 22.2 49 49 E 6 9 30.10 1019 10 16 0.00 0.00
2:53 pm 14:53 Mostly Sunny 94 34.4 71 21.7 48 48 E 9 15 30.08 1019 10 16 0.00 0.00
3:29 pm 15:29 Partly Cloudy with Thunderstorms 93 33.9 72 22.2 50 50 SSW 5 7 30.06 1018 10 16 0.00 0.00
3:50 pm 15:50 Cloudy with Nearby Thunderstorms 90 32 73 23 59 59 SSW 15 24 30.07 1018 10 16 0.00 0.00
3:53 pm 15:53 Cloudy with Nearby Thunderstorms 87 30.6 74 23.3 65 65 S 14 22 30.07 1018 10 16 0.00 0.00
4:08 pm 16:08 Cloudy with Light Rain 82 27.8 74 23.3 77 77 S 15 24 30.09 1019 6 10 0.01 0.25
4:15 pm 16:15 Cloudy with Nearby Thunderstorms 80 26.7 72 22.2 76 76 SSW 13 20 30.08 1019 3 5 0.05 1.27
4:53 pm 16:53 Cloudy with Thunderstorms 77 25 71 21.7 82 82 E 15 24 30.11 1020 10 16 0.09 2.29
5:37 pm 17:37 Mostly Cloudy with Light Rain 77 25 72 22.2 85 85 E 6 9 30.09 1019 10 16 0.03 0.76
5:53 pm 17:53 Partly Cloudy 77 25 73 22.8 88 88 ENE 3 6 30.09 1019 10 16 0.03 0.76
6:09 pm 18:09 Partly Cloudy with Nearby Thunderstorms 77 25 73 22.8 88 88 ENE 6 9 30.10 1019 10 16 0.00 0.00
6:32 pm 18:32 Mostly Cloudy with Light Rain 77 25 72 22.2 85 85 N 3 6 30.10 1019 10 16 0.00 0.00
6:53 pm 18:53 Cloudy with Light Rain 77 25 73 22.8 88 88 Calm 30.09 1019 10 16 0.00 0.00
7:53 pm 19:53 Partly Cloudy with Light Rain 76 24.4 72 22.2 88 88 E 6 9 30.09 1019 10 16 0.01 0.25
8:53 pm 20:53 Clear 76 24.4 72 22.2 88 88 SSE 3 6 30.07 1018 10 16 0.00 0.00
9:53 pm 21:53 Clear 76 24.4 73 22.8 91 91 Calm 30.08 1019 10 16 0.00 0.00
10:53 pm 22:53 Clear 76 24.4 73 22.8 91 91 Calm 30.08 1019 10 16 0.00 0.00
11:53 pm 23:53 Clear 76 24.4 73 22.8 91 91 ESE 3 6 30.10 1019 10 16 0.00 0.00

Powered by AerisWeather